CW9825 Weather Reports


time (UTC)temp
F
wind
direction
speed
knots
gust
knots
rain 1hr
in
rain 24hr
in
rain mn
in
humidity
%
barometer
mb
20200922202041 83 187 0.9 9.6 0.00 0.00 0.00 34 1014.7
20200922201609 83 154 4.3 9.6 0.00 0.00 0.00 33 1014.8
20200922201034 82 140 1.7 9.6 0.00 0.00 0.00 32 1014.9
20200922200542 82 172 1.7 8.7 0.00 0.00 0.00 35 1014.8
20200922200143 83 129 4.3 10.4 0.00 0.00 0.00 34 1014.9
20200922195532 83 166 4.3 10.4 0.00 0.00 0.00 36 1015.1
20200922195041 83 142 1.7 8.7 0.00 0.00 0.00 35 1015.0
20200922194634 83 192 3.5 8.7 0.00 0.00 0.00 37 1015.1
20200922194038 83 192 2.6 5.2 0.00 0.00 0.00 36 1015.1
20200922193538 83 280 1.7 9.6 0.00 0.00 0.00 36 1015.1
20200922193102 82 212 1.7 9.6 0.00 0.00 0.00 37 1015.2
20200922192528 82 184 3.5 8.7 0.00 0.00 0.00 38 1015.3
20200922192027 82 192 3.5 8.7 0.00 0.00 0.00 40 1015.4
20200922191558 82 221 1.7 9.6 0.00 0.00 0.00 35 1015.5
20200922191025 82 132 4.3 9.6 0.00 0.00 0.00 39 1015.5
20200922190534 81 185 0.9 7.8 0.00 0.00 0.00 39 1015.5
20200922190046 82 188 2.6 7.8 0.00 0.00 0.00 37 1015.7
20200922185530 82 140 4.3 8.7 0.00 0.00 0.00 38 1015.7
20200922185026 82 140 5.2 8.7 0.00 0.00 0.00 38 1015.8
20200922184558 82 157 4.3 8.7 0.00 0.00 0.00 38 1015.9
20200922184027 82 289 2.6 9.6 0.00 0.00 0.00 42 1015.9
20200922183521 82 209 5.2 9.6 0.00 0.00 0.00 40 1015.9
20200922183031 81 162 1.7 7.8 0.00 0.00 0.00 40 1016.1
20200922182518 81 144 2.6 7.8 0.00 0.00 0.00 44 1016.1
20200922182017 81 187 2.6 10.4 0.00 0.00 0.00 43 1016.2
20200922181529 80 179 4.3 11.3 0.00 0.00 0.00 42 1016.2
20200922181031 80 160 2.6 10.4 0.00 0.00 0.00 45 1016.4
20200922180516 80 172 2.6 7.0 0.00 0.00 0.00 46 1016.4
20200922180029 80 190 3.5 12.2 0.00 0.00 0.00 46 1016.5
20200922175522 80 150 7.0 12.2 0.00 0.00 0.00 44 1016.6
20200922175014 80 180 1.7 10.4 0.00 0.00 0.00 49 1016.7
20200922174544 80 147 7.0 11.3 0.00 0.00 0.00 47 1016.7
20200922174021 80 148 5.2 11.3 0.00 0.00 0.00 46 1016.8
20200922173517 80 138 4.3 9.6 0.00 0.00 0.00 47 1016.8
20200922173108 79 168 4.3 9.6 0.00 0.00 0.00 48 1016.9
20200922172512 79 148 3.5 8.7 0.00 0.00 0.00 50 1017.0
20200922172019 79 121 5.2 8.7 0.00 0.00 0.00 49 1017.0
20200922171012 79 119 4.3 7.8 0.00 0.00 0.00 51 1017.0
20200922170510 78 144 3.5 7.0 0.00 0.00 0.00 52 1017.1
20200922165512 78 184 2.6 6.1 0.00 0.00 0.00 53 1017.2
20200922165107 77 157 3.5 6.1 0.00 0.00 0.00 51 1017.2
20200922164658 77 177 3.5 8.7 0.00 0.00 0.00 53 1017.2
20200922164057 77 127 3.5 8.7 0.00 0.00 0.00 52 1017.2
20200922163556 76 205 3.5 7.8 0.00 0.00 0.00 54 1017.4
20200922163257 76 162 5.2 8.7 0.00 0.00 0.00 52 1017.6
20200922162552 76 132 4.3 8.7 0.00 0.00 0.00 53 1017.6
20200922162111 75 117 2.6 7.0 0.00 0.00 0.00 53 1017.7
20200922161643 74 142 2.6 7.0 0.00 0.00 0.00 52 1017.8
20200922161053 75 146 4.3 7.0 0.00 0.00 0.00 52 1017.8
20200922160546 74 147 2.6 7.0 0.00 0.00 0.00 56 1017.8
20200922160232 74 159 1.7 8.7 0.00 0.00 0.00 55 1017.8
20200922155545 73 182 3.5 8.7 0.00 0.00 0.00 53 1017.9
20200922155043 73 132 4.3 8.7 0.00 0.00 0.00 55 1017.9
20200922154653 73 147 4.3 7.0 0.00 0.00 0.00 56 1017.8
20200922154046 72 144 1.7 7.0 0.00 0.00 0.00 59 1017.9
20200922153549 71 159 3.5 8.7 0.00 0.00 0.00 58 1017.9
20200922153143 71 142 5.2 8.7 0.00 0.00 0.00 58 1017.9
20200922152537 70 153 3.5 9.6 0.00 0.00 0.00 57 1018.0
20200922152037 70 129 6.1 9.6 0.00 0.00 0.00 58 1017.9
20200922151640 69 155 3.5 7.8 0.00 0.00 0.00 60 1017.9
20200922151040 68 192 2.6 6.1 0.00 0.00 0.00 61 1017.9
20200922150602 67 139 3.5 8.7 0.00 0.00 0.00 59 1018.0
20200922150053 67 159 3.5 8.7 0.00 0.00 0.00 60 1018.0
20200922145526 66 186 4.3 7.0 0.00 0.00 0.00 62 1018.1
20200922145028 65 175 2.6 6.1 0.00 0.00 0.00 68 1018.1
20200922144625 64 166 1.7 5.2 0.00 0.00 0.00 69 1018.1
20200922144023 64 142 2.6 7.0 0.00 0.00 0.00 69 1017.9
20200922143521 64 191 2.6 8.7 0.00 0.00 0.00 66 1017.9
20200922143045 63 138 4.3 7.8 0.00 0.00 0.00 69 1017.9
20200922142519 63 144 3.5 7.0 0.00 0.00 0.00 69 1017.9
20200922142016 62 144 2.6 4.3 0.00 0.00 0.00 71 1017.9
20200922141559 61 138 0.9 4.3 0.00 0.00 0.00 74 1017.9
20200922141019 60 196 1.7 4.3 0.00 0.00 0.00 77 1018.0
20200922140516 60 150 1.7 5.2 0.00 0.00 0.00 77 1017.9
20200922140031 59 151 0.9 5.2 0.00 0.00 0.00 78 1017.9
20200922135511 58 242 1.7 3.5 0.00 0.00 0.00 82 1017.9
20200922135011 57 277 0.0 2.6 0.00 0.00 0.00 82 1017.9
20200922134525 57 277 0.9 2.6 0.00 0.00 0.00 84 1017.9
20200922134020 56 277 0.9 2.6 0.00 0.00 0.00 86 1018.0
20200922133510 55 277 0.0 0.0 0.00 0.00 0.00 86 1018.0
20200922133020 54 277 0.0 0.0 0.00 0.00 0.00 87 1017.9
20200922132509 54 277 0.0 0.0 0.00 0.00 0.00 88 1017.9
20200922132010 53 277 0.0 0.0 0.00 0.00 0.00 88 1017.9
20200922131006 52 277 0.0 0.0 0.00 0.00 0.00 88 1017.8
20200922130514 52 277 0.0 0.0 0.00 0.00 0.00 89 1017.9
20200922130200 51 277 0.0 0.9 0.00 0.00 0.00 89 1017.9
20200922125600 51 277 0.0 0.9 0.00 0.00 0.00 89 1017.8
20200922125117 51 277 0.0 0.9 0.00 0.00 0.00 89 1017.8
20200922124701 51 277 0.0 1.7 0.00 0.00 0.00 90 1017.8
20200922124057 51 277 0.0 1.7 0.00 0.00 0.00 89 1017.8
20200922123558 51 277 0.9 1.7 0.00 0.00 0.00 88 1017.8
20200922123222 51 277 0.0 0.9 0.00 0.00 0.00 89 1017.7
20200922122602 50 277 0.0 0.9 0.00 0.00 0.00 89 1017.8
20200922122056 50 277 0.0 0.9 0.00 0.00 0.00 89 1017.7
20200922121634 50 277 0.0 1.7 0.00 0.00 0.00 90 1017.7
20200922121054 50 277 0.0 1.7 0.00 0.00 0.00 90 1017.7
20200922120554 50 277 0.9 2.6 0.00 0.00 0.00 90 1017.5
20200922120202 50 277 0.0 2.6 0.00 0.00 0.00 91 1017.5
20200922115106 51 277 0.9 1.7 0.00 0.00 0.00 88 1017.3
20200922114727 51 277 0.0 1.7 0.00 0.00 0.00 88 1017.3
20200922114054 52 277 0.9 1.7 0.00 0.00 0.00 87 1017.3
20200922113552 52 277 0.9 2.6 0.00 0.00 0.00 87 1017.3
20200922113201 52 277 0.9 2.6 0.00 0.00 0.00 88 1017.3
20200922112602 50 277 0.0 1.7 0.00 0.00 0.00 90 1017.4
20200922112051 51 277 0.0 1.7 0.00 0.00 0.00 89 1017.4
20200922111629 51 277 0.0 2.6 0.00 0.00 0.00 89 1017.3
20200922111050 52 277 0.9 2.6 0.00 0.00 0.00 88 1017.3
20200922110551 50 277 1.7 2.6 0.00 0.00 0.00 90 1017.3
20200922110151 50 277 0.9 1.7 0.00 0.00 0.00 90 1017.4
20200922105547 50 277 0.0 1.7 0.00 0.00 0.00 90 1017.4
20200922105053 50 277 0.0 1.7 0.00 0.00 0.00 90 1017.3
20200922104659 51 277 0.0 1.7 0.00 0.00 0.00 89 1017.3
20200922104046 51 277 0.0 1.7 0.00 0.00 0.00 88 1017.4
20200922103558 51 277 0.0 2.6 0.00 0.00 0.00 88 1017.4
20200922103214 52 277 0.9 2.6 0.00 0.00 0.00 86 1017.4
20200922102048 52 277 1.7 2.6 0.00 0.00 0.00 86 1017.4
20200922101628 51 277 0.9 2.6 0.00 0.00 0.00 87 1017.4
20200922101107 50 277 0.0 0.0 0.00 0.00 0.00 88 1017.3
20200922100546 50 277 0.0 0.0 0.00 0.00 0.00 89 1017.4
20200922100211 50 277 0.0 0.0 0.00 0.00 0.00 90 1017.3
20200922095608 49 277 0.0 0.0 0.00 0.00 0.00 90 1017.3
20200922095042 50 277 0.0 0.0 0.00 0.00 0.00 90 1017.3
20200922094702 50 277 0.0 0.0 0.00 0.00 0.00 90 1017.3
20200922094042 50 277 0.0 0.0 0.00 0.00 0.00 89 1017.2
20200922093540 50 277 0.0 0.9 0.00 0.00 0.00 89 1017.3
20200922093120 50 277 0.0 0.9 0.00 0.00 0.00 88 1017.3
20200922092539 51 277 0.0 1.7 0.00 0.00 0.00 88 1017.4
20200922092039 51 277 0.0 1.7 0.00 0.00 0.00 87 1017.4
20200922091634 51 277 0.9 1.7 0.00 0.00 0.00 87 1017.4
20200922091044 50 277 0.0 0.0 0.00 0.00 0.00 88 1017.4
20200922090555 50 277 0.0 0.0 0.00 0.00 0.00 88 1017.4
20200922090051 51 277 0.0 0.0 0.00 0.00 0.00 88 1017.4
20200922085541 51 277 0.0 0.0 0.00 0.00 0.00 88 1017.4
20200922085038 51 277 0.0 0.0 0.00 0.00 0.00 88 1017.4
20200922084608 51 277 0.0 0.0 0.00 0.00 0.00 88 1017.3
20200922084034 51 277 0.0 0.0 0.00 0.00 0.00 88 1017.3
20200922083534 51 277 0.0 0.0 0.00 0.00 0.00 87 1017.4
20200922083051 51 277 0.0 0.0 0.00 0.00 0.00 87 1017.4
20200922082533 52 277 0.0 0.0 0.00 0.00 0.00 87 1017.4
20200922082034 52 277 0.0 0.0 0.00 0.00 0.00 86 1017.4
20200922081551 52 277 0.0 0.0 0.00 0.00 0.00 86 1017.5
20200922081033 52 277 0.0 0.0 0.00 0.00 0.00 85 1017.5
20200922080532 52 277 0.0 0.0 0.00 0.00 0.00 85 1017.4
20200922080126 52 277 0.0 0.0 0.00 0.00 0.00 85 1017.5
20200922075531 52 277 0.0 0.0 0.00 0.00 0.00 85 1017.5
20200922075029 52 277 0.0 0.0 0.00 0.00 0.00 86 1017.5
20200922074603 52 277 0.0 0.0 0.00 0.00 0.00 85 1017.5
20200922074027 53 277 0.0 0.0 0.00 0.00 0.00 86 1017.5
20200922073537 52 277 0.0 1.7 0.00 0.00 0.00 86 1017.5
20200922073051 52 277 0.0 1.7 0.00 0.00 0.00 86 1017.5
20200922072527 53 277 0.0 1.7 0.00 0.00 0.00 86 1017.6
20200922072027 53 277 0.0 0.9 0.00 0.00 0.00 85 1017.6
20200922071605 53 277 0.0 1.7 0.00 0.00 0.00 85 1017.5
20200922071026 53 277 0.0 1.7 0.00 0.00 0.00 85 1017.6
20200922070525 53 277 0.0 1.7 0.00 0.00 0.00 87 1017.5
20200922070102 53 277 0.0 0.0 0.00 0.00 0.00 87 1017.5
20200922065525 53 277 0.0 0.0 0.00 0.00 0.00 88 1017.5
20200922065025 52 277 0.0 0.0 0.00 0.00 0.00 87 1017.5
20200922064654 53 277 0.0 0.0 0.00 0.00 0.00 86 1017.5
20200922064026 54 277 0.0 0.0 0.00 0.00 0.00 85 1017.5
20200922063525 53 277 0.0 0.0 0.00 0.00 0.00 86 1017.5
20200922063036 53 277 0.0 0.0 0.00 0.00 0.00 86 1017.5
20200922062525 53 277 0.0 0.0 0.00 0.00 0.00 86 1017.6
20200922062020 54 277 0.0 0.0 0.00 0.00 0.00 85 1017.5
20200922061551 54 277 0.0 0.0 0.00 0.00 0.00 85 1017.5
20200922061019 54 277 0.0 0.0 0.00 0.00 0.00 85 1017.5
20200922060518 54 277 0.0 0.0 0.00 0.00 0.00 85 1017.6
20200922060026 54 277 0.0 0.0 0.00 0.00 0.00 85 1017.6
20200922055519 54 277 0.0 0.0 0.00 0.00 0.00 84 1017.6
20200922055017 54 277 0.0 0.0 0.00 0.00 0.00 84 1017.7
20200922054605 55 277 0.0 0.0 0.00 0.00 0.00 81 1017.6
20200922054030 55 277 0.0 0.0 0.00 0.00 0.00 82 1017.6
20200922053515 55 277 0.0 0.0 0.00 0.00 0.00 82 1017.6
20200922053017 55 277 0.0 0.0 0.00 0.00 0.00 82 1017.6
20200922052516 55 277 0.0 0.0 0.00 0.00 0.00 84 1017.6
20200922052016 55 277 0.0 0.0 0.00 0.00 0.00 85 1017.6
20200922051631 55 277 0.0 0.0 0.00 0.00 0.00 84 1017.7
20200922051017 55 277 0.0 0.0 0.00 0.00 0.00 84 1017.6
20200922050515 55 277 0.0 0.0 0.00 0.00 0.00 83 1017.6
20200922045511 55 277 0.0 0.0 0.00 0.00 0.00 83 1017.7
20200922045056 56 277 0.0 0.0 0.00 0.00 0.00 82 1017.6
20200922044518 56 277 0.0 0.0 0.00 0.00 0.00 81 1017.6
20200922044008 56 277 0.0 0.0 0.00 0.00 0.00 81 1017.5
20200922043512 56 277 0.0 0.0 0.00 0.00 0.00 80 1017.5
20200922043020 56 277 0.0 0.0 0.00 0.00 0.00 80 1017.4
20200922042509 56 277 0.0 0.0 0.00 0.00 0.00 79 1017.4
20200922042006 56 277 0.0 0.0 0.00 0.00 0.00 79 1017.4
20200922041513 57 277 0.0 0.0 0.00 0.00 0.00 78 1017.3
20200922041005 57 277 0.0 0.0 0.00 0.00 0.00 78 1017.3
20200922040509 57 277 0.0 0.0 0.00 0.00 0.00 77 1017.3
20200922035505 58 277 0.0 0.0 0.00 0.00 0.00 75 1017.2
20200922035011 58 277 0.0 0.0 0.00 0.00 0.00 75 1017.1
20200922034536 58 277 0.0 0.0 0.00 0.00 0.00 75 1017.1
20200922034004 58 277 0.0 0.0 0.00 0.00 0.00 74 1017.1
20200922033510 59 277 0.0 0.0 0.00 0.00 0.00 73 1017.1
20200922033008 59 277 0.0 0.0 0.00 0.00 0.00 72 1017.1
20200922032109 59 277 0.0 0.0 0.00 0.00 0.00 72 1016.9
20200922031707 59 277 0.0 0.0 0.00 0.00 0.00 74 1016.9
20200922031103 59 277 0.0 0.0 0.00 0.00 0.00 73 1016.9
20200922030615 60 277 0.0 0.0 0.00 0.00 0.00 72 1016.8
20200922030225 60 277 0.0 0.0 0.00 0.00 0.00 70 1016.8
20200922025558 60 277 0.0 0.0 0.00 0.00 0.00 69 1016.7
20200922025059 60 277 0.0 0.0 0.00 0.00 0.00 68 1016.8
20200922024827 61 277 0.0 0.0 0.00 0.00 0.00 68 1016.7
20200922024106 61 277 0.0 0.0 0.00 0.00 0.00 69 1016.8
20200922023604 61 277 0.0 0.0 0.00 0.00 0.00 70 1016.7
20200922023242 61 277 0.0 0.0 0.00 0.00 0.00 69 1016.7
20200922022613 61 277 0.0 0.0 0.00 0.00 0.00 68 1016.7
20200922022057 62 277 0.0 0.0 0.00 0.00 0.00 66 1016.7
20200922021712 62 277 0.0 0.0 0.00 0.00 0.00 64 1016.6
20200922021107 63 277 0.0 0.0 0.00 0.00 0.00 64 1016.7
20200922020601 63 277 0.0 0.0 0.00 0.00 0.00 64 1016.6
20200922020208 64 277 0.0 0.0 0.00 0.00 0.00 63 1016.6
20200922015617 64 277 0.0 0.0 0.00 0.00 0.00 61 1016.6
20200922015058 65 277 0.0 0.0 0.00 0.00 0.00 61 1016.5
20200922014657 64 277 0.0 0.0 0.00 0.00 0.00 62 1016.5
20200922014054 65 277 0.0 0.0 0.00 0.00 0.00 60 1016.5
20200922013558 64 277 0.0 0.0 0.00 0.00 0.00 63 1016.3
20200922013149 64 277 0.0 0.0 0.00 0.00 0.00 62 1016.3
20200922012552 64 277 0.0 0.0 0.00 0.00 0.00 61 1016.3
20200922012053 65 277 0.0 0.0 0.00 0.00 0.00 60 1016.2
20200922011629 65 277 0.0 0.0 0.00 0.00 0.00 60 1016.3
20200922011054 66 277 0.0 0.0 0.00 0.00 0.00 59 1016.2
20200922010552 66 277 0.0 0.0 0.00 0.00 0.00 59 1016.2
20200922010203 66 277 0.0 0.0 0.00 0.00 0.00 57 1016.1
20200922005550 66 277 0.0 0.0 0.00 0.00 0.00 57 1016.0
20200922005050 67 277 0.0 0.0 0.00 0.00 0.00 56 1016.0
20200922004646 68 277 0.0 0.0 0.00 0.00 0.00 53 1016.1
20200922004116 68 277 0.0 0.0 0.00 0.00 0.00 52 1016.0
20200922003550 69 277 0.0 0.0 0.00 0.00 0.00 50 1015.8
20200922003112 71 277 0.0 0.9 0.00 0.00 0.00 47 1015.8
20200922002556 72 277 0.0 1.7 0.00 0.00 0.00 45 1015.8
20200922002051 74 277 0.0 3.5 0.00 0.00 0.00 41 1015.7
20200922001700 75 277 1.7 3.5 0.00 0.00 0.00 39 1015.7
20200922001053 75 277 1.7 4.3 0.00 0.00 0.00 39 1015.6
20200922000551 76 278 1.7 6.1 0.00 0.00 0.00 38 1015.5
20200922000118 76 274 2.6 7.0 0.00 0.00 0.00 37 1015.6
20200921235551 77 273 2.6 7.0 0.00 0.00 0.00 37 1015.6
20200921235052 77 281 2.6 7.0 0.00 0.00 0.00 37 1015.5
20200921234800 78 268 2.6 8.7 0.00 0.00 0.00 36 1015.5
20200921234048 78 281 3.5 8.7 0.00 0.00 0.00 36 1015.4
20200921233549 78 284 3.5 12.2 0.00 0.00 0.00 35 1015.3
20200921233117 79 318 4.3 12.2 0.00 0.00 0.00 35 1015.2
20200921232555 79 288 2.6 11.3 0.00 0.00 0.00 35 1015.3
20200921232059 79 281 5.2 11.3 0.00 0.00 0.00 35 1015.2
20200921231621 79 244 4.3 12.2 0.00 0.00 0.00 34 1015.2
20200921231047 80 288 5.2 12.2 0.00 0.00 0.00 35 1015.2
20200921230601 80 263 4.3 10.4 0.00 0.00 0.00 35 1015.1
20200921230238 80 271 4.3 9.6 0.00 0.00 0.00 35 1015.1
20200921225549 80 288 5.2 9.6 0.00 0.00 0.00 34 1015.0
20200921225045 80 263 4.3 13.0 0.00 0.00 0.00 35 1015.0
20200921224605 80 286 6.1 13.0 0.00 0.00 0.00 33 1015.0
20200921224108 80 300 7.0 13.0 0.00 0.00 0.00 34 1014.9
20200921223544 80 271 5.2 13.9 0.00 0.00 0.00 36 1015.0
20200921223143 81 277 7.0 13.9 0.00 0.00 0.00 34 1015.0
20200921222607 81 300 7.0 10.4 0.00 0.00 0.00 34 1014.9
20200921222042 81 315 5.2 9.6 0.00 0.00 0.00 35 1014.9
20200921221604 81 283 5.2 13.0 0.00 0.00 0.00 36 1014.9
20200921221042 81 263 6.1 13.0 0.00 0.00 0.00 35 1014.9
20200921220548 81 242 4.3 15.6 0.00 0.00 0.00 35 1014.9
20200921220131 81 309 7.8 15.6 0.00 0.00 0.00 34 1014.9
20200921215556 81 290 6.1 13.9 0.00 0.00 0.00 34 1014.8
20200921215045 81 264 7.8 16.5 0.00 0.00 0.00 34 1014.9
20200921214609 81 274 7.0 16.5 0.00 0.00 0.00 34 1014.9
20200921214046 81 231 7.8 14.8 0.00 0.00 0.00 33 1014.8
20200921213601 81 280 7.8 14.8 0.00 0.00 0.00 32 1014.9
20200921213117 81 250 7.8 14.8 0.00 0.00 0.00 32 1014.9
20200921212536 82 277 7.0 13.9 0.00 0.00 0.00 32 1014.8
20200921212037 82 252 6.1 15.6 0.00 0.00 0.00 32 1014.8
20200921211607 82 257 7.0 15.6 0.00 0.00 0.00 32 1014.8
20200921211037 82 279 6.1 14.8 0.00 0.00 0.00 32 1014.8
20200921210534 82 262 5.2 13.9 0.00 0.00 0.00 33 1014.9
20200921210143 82 248 7.8 15.6 0.00 0.00 0.00 32 1014.7
20200921205539 82 277 7.8 15.6 0.00 0.00 0.00 33 1014.7
20200921205033 82 330 7.0 12.2 0.00 0.00 0.00 35 1014.7
20200921204616 82 270 6.1 12.2 0.00 0.00 0.00 33 1014.7
20200921204041 81 298 6.1 15.6 0.00 0.00 0.00 35 1014.7
20200921203534 82 260 6.1 15.6 0.00 0.00 0.00 35 1014.7
20200921203054 82 275 7.0 15.6 0.00 0.00 0.00 36 1014.7
20200921202531 81 248 7.0 15.6 0.00 0.00 0.00 36 1014.7